Weather History for Show Low, AZ

Change the Weather History Date:

Friday, April 5, 2013

  Actual Average Record
Temperature  
Mean Temperature 55 °F -  
Max Temperature 66 °F 55 °F 80 °F (1972)
Min Temperature 44 °F 36 °F 14 °F (1983)
Degree Days  
Heating Degree Days 10    
Growing Degree Days 5 (Base 50)    
Moisture  
Dew Point 20 °F    
Average Humidity 26    
Maximum Humidity 46    
Minimum Humidity 15    
Precipitation  
Precipitation 0.00 in - - ()
Sea Level Pressure  
Sea Level Pressure 30.10 in    
Wind  
Wind Speed 13 mph (SSW)    
Max Wind Speed 28 mph    
Max Gust Speed 36 mph    
Visibility 10 miles    
Events      
Averages and records for this station are not official NWS values.
T = Trace of Precipitation, MM = Missing Value Source: NWS Daily Summary

Daily Weather History Graph

Daily Weather History Graph

Search for Another Location

Airport:

Trip Planner

Search our weather history database for the weather conditions in past years. The results will help you decide how hot, cold, wet, or windy it might be!

Date:

Astronomy

Apr. 05, 2013 Rise Set
Actual Time 6:01 AM MST 6:44 PM MST
Civil Twilight 5:36 AM MST 7:09 PM MST
Nautical Twilight 5:06 AM MST 7:39 PM MST
Astronomical Twilight 4:35 AM MST 8:10 PM MST
Moon 2:58 AM MST (4/5) 2:22 PM MST (4/5)
Length of Visible Light 13h 33m
Length of Day
12h 42m
Waning Crescent, 22% of the Moon is Illuminated
Apr 5
Waning Crescent
Apr 10
New
Apr 18
First Quarter
Apr 25
Full
May 2
Last Quarter

Hourly Weather History & Observations

Time (MST) Temp. Windchill Dew Point Humidity Pressure Visibility Wind Dir Wind Speed Gust Speed Precip Events Conditions
2:55 AM 50.0 °F - 15.8 °F 26% 30.14 in 10.0 mi South 10.4 mph - N/A   Clear
3:15 AM 48.2 °F - 17.6 °F 30% 30.13 in 10.0 mi South 10.4 mph - N/A   Clear
3:35 AM 48.2 °F - 17.6 °F 30% 30.13 in 10.0 mi South 11.5 mph - N/A   Clear
3:55 AM 48.2 °F - 17.6 °F 30% 30.13 in 10.0 mi South 11.5 mph - N/A   Clear
4:15 AM 46.4 °F 41.5 °F 15.8 °F 29% 30.13 in 10.0 mi South 10.4 mph - N/A   Clear
4:35 AM 46.4 °F 41.5 °F 15.8 °F 29% 30.13 in 10.0 mi South 10.4 mph - N/A   Clear
4:55 AM 46.4 °F 41.5 °F 15.8 °F 29% 30.12 in 10.0 mi South 10.4 mph - N/A   Clear
5:15 AM 46.4 °F 41.1 °F 14.0 °F 27% 30.12 in 10.0 mi South 11.5 mph - N/A   Clear
5:35 AM 48.2 °F - 14.0 °F 25% 30.12 in 10.0 mi South 10.4 mph - N/A   Clear
5:55 AM 48.2 °F - 15.8 °F 27% 30.13 in 10.0 mi South 10.4 mph - N/A   Clear
6:15 AM 48.2 °F - 15.8 °F 27% 30.13 in 10.0 mi South 4.6 mph - N/A   Clear
6:35 AM 46.4 °F 44.3 °F 17.6 °F 32% 30.15 in 10.0 mi SSW 4.6 mph - N/A   Clear
6:55 AM 46.4 °F 43.5 °F 17.6 °F 32% 30.15 in 10.0 mi SW 5.8 mph - N/A   Clear
7:15 AM 48.2 °F - 17.6 °F 30% 30.15 in 10.0 mi SSW 5.8 mph - N/A   Clear
7:35 AM 51.8 °F - 17.6 °F 26% 30.15 in 10.0 mi SSW 8.1 mph - N/A   Clear
7:55 AM 55.4 °F - 17.6 °F 23% 30.14 in 10.0 mi South 10.4 mph - N/A   Clear
8:15 AM 57.2 °F - 19.4 °F 23% 30.14 in 10.0 mi SSW 15.0 mph 19.6 mph N/A   Clear
8:35 AM 57.2 °F - 19.4 °F 23% 30.14 in 10.0 mi South 16.1 mph - N/A   Clear
8:55 AM 59.0 °F - 19.4 °F 22% 30.14 in 10.0 mi SW 16.1 mph - N/A   Clear
9:15 AM 60.8 °F - 19.4 °F 20% 30.14 in 10.0 mi SW 13.8 mph 17.3 mph N/A   Clear
9:35 AM 60.8 °F - 19.4 °F 20% 30.13 in 10.0 mi SW 13.8 mph 23.0 mph N/A   Clear
9:55 AM 62.6 °F - 17.6 °F 18% 30.12 in 10.0 mi SSW 19.6 mph 25.3 mph N/A   Clear
10:15 AM 62.6 °F - 17.6 °F 18% 30.12 in 10.0 mi SSW 18.4 mph 29.9 mph N/A   Clear
10:35 AM 64.4 °F - 15.8 °F 15% 30.12 in 10.0 mi SW 19.6 mph 27.6 mph N/A   Clear
10:55 AM 64.4 °F - 15.8 °F 15% 30.12 in 10.0 mi SSW 19.6 mph 28.8 mph N/A   Unknown
11:15 AM 64.4 °F - 15.8 °F 15% 30.12 in 10.0 mi SW 16.1 mph 26.5 mph N/A   Clear
11:35 AM 64.4 °F - 15.8 °F 15% 30.11 in 10.0 mi SSW 20.7 mph 28.8 mph N/A   Clear
11:55 AM 64.4 °F - 17.6 °F 16% 30.11 in 10.0 mi SW 24.2 mph 29.9 mph N/A   Clear
12:15 PM 66.2 °F - 17.6 °F 15% 30.11 in 10.0 mi SW 13.8 mph 27.6 mph N/A   Clear
12:35 PM 66.2 °F - 17.6 °F 15% 30.10 in 10.0 mi SSW 18.4 mph 28.8 mph N/A   Clear
12:55 PM 66.2 °F - 17.6 °F 15% 30.08 in 10.0 mi WSW 23.0 mph 31.1 mph N/A   Clear
1:15 PM 66.2 °F - 19.4 °F 17% 30.08 in 10.0 mi SSW 25.3 mph 32.2 mph N/A   Clear
1:35 PM 66.2 °F - 19.4 °F 17% 30.07 in 10.0 mi SW 26.5 mph 32.2 mph N/A   Clear
1:55 PM 66.2 °F - 19.4 °F 17% 30.06 in 10.0 mi SW 25.3 mph 32.2 mph N/A   Clear
2:15 PM 66.2 °F - 19.4 °F 17% 30.06 in 10.0 mi SSW 24.2 mph 34.5 mph N/A   Clear
2:35 PM 66.2 °F - 23.0 °F 19% 30.05 in 10.0 mi SW 26.5 mph 29.9 mph N/A   Clear
2:55 PM 66.2 °F - 19.4 °F 17% 30.04 in 10.0 mi SW 27.6 mph 35.7 mph N/A   Clear
3:15 PM 66.2 °F - 21.2 °F 18% 30.04 in 10.0 mi WSW 25.3 mph 35.7 mph N/A   Clear
3:35 PM 66.2 °F - 19.4 °F 17% 30.04 in 10.0 mi SW 25.3 mph 33.4 mph N/A   Clear
3:55 PM 66.2 °F - 23.0 °F 19% 30.03 in 10.0 mi SW 21.9 mph 28.8 mph N/A   Clear
4:15 PM 66.2 °F - 17.6 °F 15% 30.03 in 10.0 mi SW 24.2 mph 31.1 mph N/A   Clear
4:35 PM 64.4 °F - 19.4 °F 18% 30.03 in 10.0 mi SW 23.0 mph 29.9 mph N/A   Clear
4:55 PM 64.4 °F - 21.2 °F 19% 30.05 in 10.0 mi WSW 17.3 mph 27.6 mph N/A   Clear
5:15 PM 64.4 °F - 21.2 °F 19% 30.05 in 10.0 mi SW 23.0 mph 31.1 mph N/A   Clear
5:35 PM 62.6 °F - 21.2 °F 20% 30.05 in 10.0 mi SW 21.9 mph 28.8 mph N/A   Clear
5:55 PM 60.8 °F - 23.0 °F 23% 30.05 in 10.0 mi SW 18.4 mph 25.3 mph N/A   Clear
6:15 PM 59.0 °F - 23.0 °F 25% 30.06 in 10.0 mi SW 13.8 mph - N/A   Clear
6:35 PM 57.2 °F - 23.0 °F 27% 30.06 in 10.0 mi SW 12.7 mph 21.9 mph N/A   Clear
6:55 PM 55.4 °F - 23.0 °F 29% 30.07 in 10.0 mi SW 11.5 mph - N/A   Clear
7:15 PM 55.4 °F - 23.0 °F 29% 30.07 in 10.0 mi SSW 13.8 mph - N/A   Clear
7:35 PM 53.6 °F - 23.0 °F 30% 30.07 in 10.0 mi SSW 11.5 mph - N/A   Clear
7:55 PM 53.6 °F - 23.0 °F 30% 30.08 in 10.0 mi SW 10.4 mph - N/A   Clear
8:15 PM 51.8 °F - 23.0 °F 33% 30.09 in 10.0 mi SSW 8.1 mph - N/A   Clear
8:35 PM 50.0 °F - 23.0 °F 35% 30.09 in 10.0 mi South 5.8 mph - N/A   Clear
8:55 PM 48.2 °F - 23.0 °F 37% 30.10 in 10.0 mi SSE 5.8 mph - N/A   Clear
9:15 PM 46.4 °F 43.5 °F 23.0 °F 40% 30.10 in 10.0 mi South 5.8 mph - N/A   Clear
9:35 PM 48.2 °F - 23.0 °F 37% 30.10 in 10.0 mi SSW 9.2 mph - N/A   Clear
9:55 PM 48.2 °F - 24.8 °F 40% 30.11 in 10.0 mi South 6.9 mph - N/A   Clear
10:15 PM 48.2 °F - 24.8 °F 40% 30.11 in 10.0 mi South 11.5 mph - N/A   Clear
10:35 PM 46.4 °F 41.5 °F 24.8 °F 43% 30.11 in 10.0 mi South 10.4 mph - N/A   Clear
10:55 PM 46.4 °F 42.4 °F 24.8 °F 43% 30.11 in 10.0 mi South 8.1 mph - N/A   Clear
11:15 PM 44.6 °F 39.2 °F 24.8 °F 46% 30.10 in 10.0 mi South 10.4 mph - N/A   Clear
11:35 PM 46.4 °F 41.9 °F 24.8 °F 43% 30.10 in 10.0 mi South 9.2 mph - N/A   Clear
11:55 PM 46.4 °F 41.5 °F 24.8 °F 43% 30.10 in 10.0 mi South 10.4 mph - N/A   Clear